NWK2748 YPPH-YPPH

Flight info

Callsign NWK2748
Flight time 0h 6m
Altitude 37000
Route AMANA5/21 AMANA Y31 WONYU
Aircraft A320/M-SDE3FGHIRWYZ/LB1

Departure

Time 2026-05-06 11:00
Airport Perth International Airport (YPPH)

Arrival

Time 2026-05-06 11:07
Airport Perth International Airport (YPPH)
Time Latitude Longitude Altitude Speed Heading
2026-05-06 10:21 -27.80984 118.59636 37286 ft 470 kts 82°
2026-05-06 10:21 -27.80852 118.63293 37275 ft 464 kts 100°
2026-05-06 10:21 -27.81628 118.66788 37263 ft 456 kts 117°
2026-05-06 10:21 -27.83230 118.69822 37254 ft 445 kts 135°
2026-05-06 10:22 -27.85491 118.72129 37254 ft 433 kts 153°
2026-05-06 10:22 -27.88184 118.73517 37253 ft 421 kts 171°
2026-05-06 10:22 -27.93923 118.74313 37258 ft 416 kts 180°
2026-05-06 10:23 -27.99707 118.74569 37290 ft 415 kts 193°
2026-05-06 10:23 -28.01564 118.74088 37295 ft 412 kts 204°
2026-05-06 10:23 -28.04152 118.72745 37297 ft 408 kts 209°
2026-05-06 10:24 -28.09177 118.69660 37292 ft 413 kts 213°
2026-05-06 10:24 -28.14059 118.66210 37293 ft 414 kts 215°
2026-05-06 10:25 -28.18923 118.62714 37294 ft 414 kts 214°
2026-05-06 10:25 -28.23829 118.59278 37299 ft 415 kts 214°
2026-05-06 10:26 -28.28761 118.55866 37301 ft 415 kts 214°
2026-05-06 10:26 -28.33679 118.52440 37300 ft 415 kts 214°
2026-05-06 10:27 -28.38595 118.49004 37300 ft 415 kts 214°
2026-05-06 10:27 -28.43508 118.45570 37301 ft 415 kts 214°
2026-05-06 10:28 -28.48428 118.42127 37300 ft 415 kts 214°
2026-05-06 10:28 -28.53338 118.38682 37297 ft 415 kts 214°
2026-05-06 10:29 -28.58255 118.35220 37297 ft 416 kts 214°
2026-05-06 10:29 -28.63179 118.31759 37306 ft 416 kts 214°
2026-05-06 10:30 -28.68107 118.28294 37314 ft 417 kts 214°
2026-05-06 10:30 -28.73059 118.24810 37282 ft 420 kts 214°
2026-05-06 10:31 -28.78045 118.21297 37280 ft 422 kts 214°
2026-05-06 10:31 -28.83050 118.17756 37282 ft 425 kts 214°
2026-05-06 10:32 -28.88081 118.14208 37289 ft 426 kts 214°
2026-05-06 10:32 -28.93125 118.10641 37300 ft 427 kts 214°
2026-05-06 10:33 -28.98168 118.07061 37314 ft 427 kts 214°
2026-05-06 10:33 -29.03228 118.03473 37328 ft 428 kts 213°
2026-05-06 10:34 -29.08294 117.99884 37341 ft 429 kts 213°
2026-05-06 10:34 -29.13355 117.96283 37359 ft 429 kts 213°
2026-05-06 10:35 -29.18429 117.92668 37365 ft 429 kts 213°
2026-05-06 10:35 -29.23463 117.89080 37356 ft 429 kts 213°
2026-05-06 10:36 -29.28537 117.85468 37360 ft 429 kts 213°
2026-05-06 10:36 -29.33616 117.81851 37353 ft 430 kts 213°
2026-05-06 10:37 -29.38696 117.78212 37359 ft 430 kts 213°
2026-05-06 10:37 -29.43809 117.74552 37354 ft 430 kts 213°
2026-05-06 10:38 -29.48856 117.70932 37355 ft 431 kts 213°
2026-05-06 10:38 -29.53975 117.67264 37366 ft 431 kts 213°
2026-05-06 10:39 -29.59055 117.63609 37355 ft 431 kts 213°
2026-05-06 10:39 -29.64142 117.59947 37362 ft 431 kts 213°
2026-05-06 10:40 -29.69229 117.56285 37364 ft 431 kts 213°
2026-05-06 10:40 -29.74312 117.52624 37368 ft 431 kts 213°
2026-05-06 10:41 -29.79399 117.48951 37368 ft 432 kts 213°
2026-05-06 10:41 -29.84486 117.45277 37365 ft 432 kts 213°
2026-05-06 10:42 -29.89575 117.41590 37364 ft 432 kts 213°
2026-05-06 10:42 -29.94659 117.37897 37373 ft 432 kts 213°
2026-05-06 10:43 -29.99748 117.34206 37379 ft 432 kts 213°
2026-05-06 10:44 -30.07393 117.28670 37370 ft 433 kts 213°
2026-05-06 10:44 -30.12499 117.24958 37368 ft 434 kts 213°
2026-05-06 10:45 -30.17601 117.21233 37371 ft 434 kts 213°
2026-05-06 10:45 -30.22707 117.17503 37374 ft 434 kts 213°
2026-05-06 10:46 -30.27816 117.13767 37377 ft 434 kts 213°
2026-05-06 10:46 -30.32927 117.10035 37376 ft 434 kts 213°
2026-05-06 10:47 -30.38029 117.06293 37381 ft 434 kts 213°
2026-05-06 10:47 -30.43132 117.02560 37379 ft 434 kts 213°
2026-05-06 10:47 -30.45682 117.00695 37159 ft 433 kts 213°
2026-05-06 10:48 -30.48245 116.98817 36282 ft 436 kts 213°
2026-05-06 10:48 -30.50805 116.96938 35535 ft 436 kts 213°
2026-05-06 10:48 -30.53366 116.95047 34772 ft 436 kts 213°
2026-05-06 10:48 -30.55929 116.93153 33978 ft 437 kts 212°
2026-05-06 10:49 -30.58508 116.91250 33080 ft 441 kts 212°
2026-05-06 10:49 -30.61103 116.89336 32190 ft 443 kts 212°
2026-05-06 10:49 -30.63712 116.87413 31295 ft 446 kts 212°
2026-05-06 10:49 -30.66347 116.85472 30275 ft 450 kts 212°
2026-05-06 10:50 -30.68999 116.83515 29242 ft 453 kts 212°
2026-05-06 10:50 -30.71672 116.81541 28154 ft 457 kts 212°
2026-05-06 10:50 -30.74350 116.79563 27402 ft 453 kts 212°
2026-05-06 10:50 -30.76992 116.77610 26722 ft 447 kts 212°
2026-05-06 10:51 -30.79606 116.75675 26012 ft 443 kts 212°
2026-05-06 10:51 -30.82196 116.73759 25313 ft 439 kts 212°
2026-05-06 10:51 -30.84760 116.71863 24621 ft 435 kts 212°
2026-05-06 10:51 -30.87300 116.69983 23932 ft 431 kts 212°
2026-05-06 10:52 -30.89819 116.68115 23265 ft 428 kts 212°
2026-05-06 10:52 -30.92317 116.66257 22595 ft 424 kts 212°
2026-05-06 10:52 -30.94788 116.64419 21930 ft 420 kts 212°
2026-05-06 10:52 -30.97239 116.62597 21272 ft 416 kts 211°
2026-05-06 10:53 -30.99665 116.60795 20645 ft 411 kts 211°
2026-05-06 10:53 -31.02060 116.59011 20037 ft 407 kts 212°
2026-05-06 10:53 -31.04436 116.57238 19454 ft 403 kts 212°
2026-05-06 10:53 -31.06791 116.55483 18892 ft 400 kts 211°
2026-05-06 10:54 -31.09123 116.53744 18339 ft 397 kts 212°
2026-05-06 10:54 -31.11442 116.52015 17795 ft 394 kts 211°
2026-05-06 10:54 -31.13740 116.50303 17234 ft 390 kts 211°
2026-05-06 10:54 -31.16020 116.48602 16677 ft 388 kts 211°
2026-05-06 10:55 -31.18281 116.46911 16105 ft 384 kts 211°
2026-05-06 10:55 -31.20528 116.45228 15516 ft 381 kts 211°
2026-05-06 10:55 -31.22750 116.43565 14928 ft 378 kts 211°
2026-05-06 10:55 -31.24959 116.41912 14327 ft 376 kts 211°
2026-05-06 10:56 -31.27153 116.40269 13716 ft 373 kts 211°
2026-05-06 10:56 -31.29324 116.38640 13112 ft 369 kts 211°
2026-05-06 10:56 -31.31476 116.37026 12499 ft 367 kts 211°
2026-05-06 10:56 -31.33612 116.35423 11897 ft 364 kts 211°
2026-05-06 10:57 -31.35735 116.33828 11298 ft 361 kts 211°
2026-05-06 10:57 -31.37810 116.32267 11109 ft 347 kts 211°
2026-05-06 10:57 -31.39797 116.30771 10978 ft 333 kts 211°
2026-05-06 10:57 -31.41710 116.29335 10853 ft 320 kts 210°
2026-05-06 10:58 -31.43594 116.28029 10727 ft 309 kts 207°
2026-05-06 10:58 -31.45446 116.26838 10557 ft 299 kts 206°
2026-05-06 10:58 -31.47264 116.25704 10126 ft 293 kts 206°
2026-05-06 10:58 -31.49054 116.24596 10015 ft 291 kts 206°
2026-05-06 10:59 -31.50851 116.23478 9706 ft 295 kts 206°
2026-05-06 10:59 -31.52663 116.22337 9314 ft 295 kts 206°
2026-05-06 10:59 -31.54470 116.21191 8894 ft 296 kts 206°
2026-05-06 10:59 -31.56281 116.20035 8485 ft 297 kts 206°
2026-05-06 11:00 -31.58097 116.18872 8077 ft 297 kts 206°
2026-05-06 11:00 -31.59909 116.17711 7664 ft 296 kts 206°
2026-05-06 11:00 -31.61699 116.16564 7262 ft 289 kts 206°
2026-05-06 11:00 -31.62885 116.15804 6991 ft 285 kts 206°
2026-05-06 11:01 -31.65154 116.14347 6477 ft 277 kts 206°
2026-05-06 11:01 -31.66286 116.13618 6231 ft 273 kts 206°
2026-05-06 11:01 -31.67935 116.12556 5856 ft 268 kts 206°
2026-05-06 11:01 -31.70095 116.11165 5368 ft 261 kts 206°
2026-05-06 11:02 -31.71142 116.10491 5132 ft 258 kts 206°
2026-05-06 11:02 -31.72698 116.09490 4780 ft 253 kts 206°
2026-05-06 11:02 -31.74227 116.08507 4434 ft 248 kts 206°
2026-05-06 11:02 -31.75606 116.07329 4093 ft 245 kts 225°
2026-05-06 11:03 -31.76990 116.05241 3638 ft 239 kts 231°
2026-05-06 11:03 -31.77649 116.04216 3425 ft 235 kts 230°
2026-05-06 11:03 -31.78627 116.02704 3102 ft 229 kts 230°
2026-05-06 11:03 -31.79619 116.01256 2787 ft 224 kts 219°
2026-05-06 11:04 -31.80908 116.00331 2478 ft 215 kts 195°
2026-05-06 11:04 -31.82340 115.99881 2173 ft 211 kts 190°
2026-05-06 11:04 -31.83751 115.99489 1896 ft 206 kts 191°
2026-05-06 11:04 -31.85151 115.99088 1620 ft 206 kts 191°
2026-05-06 11:05 -31.86541 115.98685 1347 ft 205 kts 192°
2026-05-06 11:05 -31.87916 115.98285 1077 ft 199 kts 192°
2026-05-06 11:05 -31.89209 115.97908 833 ft 185 kts 192°
2026-05-06 11:05 -31.90414 115.97557 580 ft 170 kts 192°
2026-05-06 11:06 -31.91478 115.97247 372 ft 147 kts 192°
2026-05-06 11:06 -31.92437 115.96968 193 ft 139 kts 192°
2026-05-06 11:06 -31.93355 115.96705 64 ft 126 kts 194°
2026-05-06 11:06 -31.94056 115.96501 62 ft 79 kts 194°
2026-05-06 11:07 -31.94396 115.96397 67 ft 18 kts 205°
2026-05-06 11:07 -31.94425 115.96266 68 ft 19 kts 284°
2026-05-06 11:07 -31.94369 115.96171 61 ft 16 kts 353°
2026-05-06 11:07 -31.94248 115.96205 59 ft 20 kts 14°
2026-05-06 11:08 -31.94104 115.96247 63 ft 22 kts 14°
2026-05-06 11:08 -31.93948 115.96293 69 ft 24 kts 13°
2026-05-06 11:08 -31.93774 115.96344 64 ft 27 kts 14°
2026-05-06 11:08 -31.93583 115.96399 65 ft 29 kts 14°
2026-05-06 11:09 -31.93459 115.96423 64 ft 15 kts 340°
2026-05-06 11:09 -31.93386 115.96325 61 ft 17 kts 333°
2026-05-06 11:09 -31.93283 115.96328 68 ft 13 kts
2026-05-06 11:09 -31.93262 115.96328 68 ft 2 kts 356°
2026-05-06 11:10 -31.93216 115.96270 61 ft 16 kts 296°
2026-05-06 11:10 -31.93150 115.96158 61 ft 16 kts 291°
2026-05-06 11:10 -31.93183 115.96103 60 ft 1 kts 207°
2026-05-06 11:10 -31.93186 115.96102 68 ft 1 kts 196°
2026-05-06 11:11 -31.93197 115.96099 68 ft 2 kts 198°
2026-05-06 11:11 -31.93197 115.96098 68 ft 0 kts 199°